LFLXLFOA

Guest
Details From LFLX - Chateauroux Deols
To LFOA - AVORD
Flight Number -
Tags generated
Created
Modified
Stats Distance 39 nm / 72 km
Max Altitude 0 ft / 0 m
Waypoints 3
Social Downloads 0
Likes 0
Share VATSIM

Download

Looking for another format? Having issues loading an existing format? Contact us
Advertisement - Login to hide

Notes

Basic altitude profile: - Ascent Rate: 2500ft/min - Ascent Speed: 250kts - Cruise Altitude: 35000ft - Cruise Speed: 420kts - Descent Rate: 1500ft/min - Descent Speed: 250kts Options: - Use NATs: yes - Use PACOTS: yes - Use low airways: yes - Use high airways: yes

Route

LFLX AVD LFOA

ID Type Via Altitude Latitude Longitude Leg Dist Tot Dist Heading (true) Name
O LFLX APT - 0 ft / 0 m 46.86375˚ 1.73167˚ - 0 nm - Chateauroux Deols
AVD VOR - 0 ft / 0 m 47.05808˚ 2.62986˚ 38 nm 38 nm 72° / 73° -
O LFOA APT - 0 ft / 0 m 47.05574˚ 2.63181˚ 0 nm 38 nm 151° / 151° AVORD

Altitude Profile

Advertisement - Login to hide

LFLX

Details ICAO LFLX (CHR)
Name Chateauroux Deols
Region France
Timezone Europe/Paris (UTC+2.0)
Stats Elevation 529 ft / 161 m (AMSL)
Location 46.863750° 1.731667°
Runways 1
Magnetic Variation 0.581° E

METAR

LFLX 201800Z AUTO 04006KT CAVOK 21/12 Q1014 TEMPO SCT060TCU

Decode

TAF

TAF LFLX 201700Z 2018/2124 07008KT CAVOK PROB30 TEMPO 2018/2021 VRB03KT SCT060TCU BECMG 2108/2110 VRB03KT TEMPO 2110/2118 SHRA SCT045TCU PROB40 TEMPO 2112/2116 18012G30KT -TSRA SCT050CB PROB30 TEMPO 2122/2124 4000 BR

Decode

Departure Runways

ID Width Length Bearing (true) Bearing (mag) Surface Threshold Offset Overrun Length
04 148 ft / 45 m 11,473 ft / 3,497 m 32.92° 32.34° Concrete 0 ft / 0 m 0 ft / 0 m
22 148 ft / 45 m 11,473 ft / 3,497 m 212.94° 212.36° Concrete 0 ft / 0 m 0 ft / 0 m

LFOA

Details ICAO LFOA
Name AVORD
Region France
Timezone Europe/Paris (UTC+2.0)
Stats Elevation 580 ft / 177 m (AMSL)
Location 47.055737° 2.631807°
Runways 1
Magnetic Variation 0.829° E

METAR

LFOA 201800Z AUTO 04008KT 9999 // NSC 22/08 Q1014

Decode

TAF

Not found

Destination Runways

ID Width Length Bearing (true) Bearing (mag) Surface Threshold Offset Overrun Length
06 148 ft / 45 m 11,471 ft / 3,496 m 60.27° 59.44° Asphalt 0 ft / 0 m 1,312 ft / 400 m
24 148 ft / 45 m 11,471 ft / 3,496 m 240.30° 239.47° Asphalt 0 ft / 0 m 1,319 ft / 402 m

Approach Navaids

Runway Type Ident Frequency Range Bearing (true) Bearing (mag) Slope Elevation
06 Localiser AV 110.70 MHz 18 nm / 33 km 60.32° 59.49° - 577 ft / 176 m (AMSL)
06 Glidescope AV 110.70 MHz 10 nm / 19 km 60.29° 59.46° 3.00° 577 ft / 176 m (AMSL)
24 Localiser AV 110.70 MHz 18 nm / 33 km 240.26° 239.44° - 562 ft / 171 m (AMSL)
24 Glidescope AV 110.70 MHz 10 nm / 19 km 240.29° 239.46° 3.00° 633 ft / 193 m (AMSL)